contact:dominique.lefevre@mio.osupytheas.fr, maurice.libes@osupytheas.fr, didier.mallarino@osupytheas.fr
Project:EMSO http://www.emso-fr.org/EMSO-France
Depth: 2436.0 m
Title:EMSO Ligure Ouest : Data MII capteur CSTAR
DateTime,Latitude,Longitude,Instrument_Serial,Reference_Counts,Signal_Counts,Corrected_Signal_raw_counts,Calculated_Beam_c_inverse_meters,Internal_thermistor_counts
DateTime,Latitude,Longitude,Instrument_Serial,Reference_Counts,Signal_Counts,Corrected_Signal_raw_counts,Calculated_Beam_c_inverse_meters,Internal_thermistor_counts
2023-11-19T00:00:58,42.805,6.029,CST-1368DR,4106,4349,11224,01.321,553
2023-11-19T00:04:00,42.805,6.029,CST-1368DR,4106,4349,11225,01.321,553
2023-11-19T00:07:01,42.805,6.029,CST-1368DR,4106,4348,11222,01.322,553
2023-11-19T00:10:03,42.805,6.029,CST-1368DR,4106,4349,11223,01.321,553
2023-11-19T00:13:04,42.805,6.029,CST-1368DR,4106,4348,11222,01.322,553
2023-11-19T00:16:06,42.805,6.029,CST-1368DR,4106,4349,11225,01.321,553
2023-11-19T00:19:08,42.805,6.029,CST-1368DR,4106,4349,11224,01.321,553
2023-11-19T00:22:09,42.805,6.029,CST-1368DR,4106,4349,11223,01.321,553
2023-11-19T00:25:11,42.805,6.029,CST-1368DR,4106,4349,11225,01.321,553
2023-11-19T00:28:12,42.805,6.029,CST-1368DR,4106,4350,11226,01.320,553
2023-11-19T00:31:14,42.805,6.029,CST-1368DR,4106,4354,11237,01.316,552
2023-11-19T00:34:16,42.805,6.029,CST-1368DR,4106,4350,11226,01.320,553
2023-11-19T00:37:17,42.805,6.029,CST-1368DR,4106,4351,11229,01.319,553
2023-11-19T00:40:19,42.805,6.029,CST-1368DR,4106,4349,11224,01.321,553
2023-11-19T00:43:20,42.805,6.029,CST-1368DR,4106,4349,11224,01.321,553
2023-11-19T00:46:22,42.805,6.029,CST-1368DR,4106,4350,11226,01.320,553
2023-11-19T00:49:23,42.805,6.029,CST-1368DR,4106,4348,11222,01.322,553
2023-11-19T00:52:25,42.805,6.029,CST-1368DR,4106,4349,11225,01.321,553
2023-11-19T00:55:27,42.805,6.029,CST-1368DR,4106,4349,11224,01.321,553
2023-11-19T00:58:28,42.805,6.029,CST-1368DR,4106,4350,11226,01.320,553
2023-11-19T01:01:30,42.805,6.029,CST-1368DR,4106,4350,11227,01.320,553
2023-11-19T01:04:31,42.805,6.029,CST-1368DR,4106,4350,11227,01.320,553
2023-11-19T01:07:33,42.805,6.029,CST-1368DR,4106,4349,11225,01.321,553
2023-11-19T01:10:34,42.805,6.029,CST-1368DR,4106,4350,11227,01.320,553
2023-11-19T01:13:36,42.805,6.029,CST-1368DR,4106,4349,11224,01.321,553
2023-11-19T01:16:38,42.805,6.029,CST-1368DR,4106,4353,11234,01.317,552
2023-11-19T01:19:39,42.805,6.029,CST-1368DR,4106,4350,11227,01.320,553
2023-11-19T01:22:41,42.805,6.029,CST-1368DR,4106,4350,11226,01.320,553
2023-11-19T01:25:42,42.805,6.029,CST-1368DR,4106,4349,11225,01.321,553
2023-11-19T01:28:44,42.805,6.029,CST-1368DR,4106,4349,11225,01.321,553
2023-11-19T01:31:45,42.805,6.029,CST-1368DR,4106,4350,11227,01.320,553
2023-11-19T01:34:47,42.805,6.029,CST-1368DR,4106,4349,11224,01.321,553
2023-11-19T01:37:49,42.805,6.029,CST-1368DR,4106,4349,11225,01.321,553
2023-11-19T01:40:50,42.805,6.029,CST-1368DR,4106,4350,11226,01.320,553
2023-11-19T01:43:52,42.805,6.029,CST-1368DR,4106,4349,11224,01.321,553
2023-11-19T01:46:53,42.805,6.029,CST-1368DR,4105,4349,11227,01.320,553
2023-11-19T01:49:55,42.805,6.029,CST-1368DR,4105,4352,11235,01.317,552
2023-11-19T01:52:57,42.805,6.029,CST-1368DR,4105,4349,11227,01.320,553
2023-11-19T01:55:58,42.805,6.029,CST-1368DR,4105,4349,11226,01.320,553
2023-11-19T01:59:00,42.805,6.029,CST-1368DR,4105,4349,11226,01.320,553
2023-11-19T02:02:01,42.805,6.029,CST-1368DR,4105,4349,11226,01.320,553
2023-11-19T02:05:03,42.805,6.029,CST-1368DR,4105,4350,11228,01.320,553
2023-11-19T02:08:04,42.805,6.029,CST-1368DR,4105,4348,11224,01.321,553
2023-11-19T02:11:06,42.805,6.029,CST-1368DR,4106,4349,11224,01.321,553
2023-11-19T02:14:08,42.805,6.029,CST-1368DR,4105,4348,11224,01.321,553
2023-11-19T02:17:09,42.805,6.029,CST-1368DR,4106,4350,11226,01.320,553
2023-11-19T02:20:11,42.805,6.029,CST-1368DR,4105,4349,11228,01.320,553
2023-11-19T02:23:12,42.805,6.029,CST-1368DR,4105,4349,11226,01.320,553
2023-11-19T02:26:14,42.805,6.029,CST-1368DR,4105,4349,11227,01.320,553
2023-11-19T02:29:15,42.805,6.029,CST-1368DR,4105,4350,11230,01.319,553
2023-11-19T02:32:17,42.805,6.029,CST-1368DR,4106,4350,11226,01.320,553
2023-11-19T02:35:19,42.805,6.029,CST-1368DR,4106,4350,11226,01.320,553
2023-11-19T02:38:20,42.805,6.029,CST-1368DR,4106,4349,11224,01.321,553
2023-11-19T02:41:22,42.805,6.029,CST-1368DR,4105,4350,11228,01.320,553
2023-11-19T02:44:23,42.805,6.029,CST-1368DR,4105,4348,11224,01.321,553
2023-11-19T02:47:25,42.805,6.029,CST-1368DR,4105,4349,11228,01.320,553
2023-11-19T02:50:27,42.805,6.029,CST-1368DR,4105,4349,11227,01.320,553
2023-11-19T02:53:28,42.805,6.029,CST-1368DR,4105,4350,11229,01.319,553
2023-11-19T02:56:30,42.805,6.029,CST-1368DR,4105,4349,11226,01.320,553
2023-11-19T02:59:31,42.805,6.029,CST-1368DR,4106,4349,11223,01.321,553
2023-11-19T03:02:33,42.805,6.029,CST-1368DR,4106,4350,11226,01.320,553
2023-11-19T03:05:34,42.805,6.029,CST-1368DR,4106,4350,11227,01.320,553
2023-11-19T03:08:36,42.805,6.029,CST-1368DR,4105,4350,11230,01.319,553
2023-11-19T03:11:38,42.805,6.029,CST-1368DR,4106,4350,11227,01.320,553
2023-11-19T03:14:39,42.805,6.029,CST-1368DR,4105,4348,11225,01.321,553
2023-11-19T03:17:41,42.805,6.029,CST-1368DR,4106,4355,11239,01.316,553
2023-11-19T03:20:42,42.805,6.029,CST-1368DR,4105,4349,11227,01.320,553
2023-11-19T03:23:44,42.805,6.029,CST-1368DR,4105,4349,11228,01.320,553
2023-11-19T03:26:46,42.805,6.029,CST-1368DR,4106,4349,11224,01.321,553
2023-11-19T03:29:47,42.805,6.029,CST-1368DR,4106,4350,11226,01.320,553
2023-11-19T03:32:49,42.805,6.029,CST-1368DR,4106,4349,11224,01.321,553
2023-11-19T03:35:50,42.805,6.029,CST-1368DR,4105,4349,11227,01.320,553
2023-11-19T03:38:52,42.805,6.029,CST-1368DR,4106,4350,11227,01.320,553
2023-11-19T03:41:53,42.805,6.029,CST-1368DR,4106,4356,11242,01.315,553
2023-11-19T03:44:55,42.805,6.029,CST-1368DR,4106,4350,11227,01.320,553
2023-11-19T03:47:57,42.805,6.029,CST-1368DR,4105,4349,11226,01.320,553
2023-11-19T03:50:58,42.805,6.029,CST-1368DR,4105,4351,11231,01.318,553
2023-11-19T03:54:00,42.805,6.029,CST-1368DR,4105,4350,11229,01.319,553
2023-11-19T03:57:01,42.805,6.029,CST-1368DR,4106,4350,11227,01.320,553
2023-11-19T04:00:03,42.805,6.029,CST-1368DR,4105,4348,11225,01.321,553
2023-11-19T04:03:04,42.805,6.029,CST-1368DR,4106,4350,11226,01.320,553
2023-11-19T04:06:06,42.805,6.029,CST-1368DR,4106,4349,11225,01.321,553
2023-11-19T04:09:08,42.805,6.029,CST-1368DR,4105,4349,11228,01.320,553
2023-11-19T04:12:09,42.805,6.029,CST-1368DR,4106,4348,11222,01.322,553
2023-11-19T04:15:11,42.805,6.029,CST-1368DR,4106,4350,11226,01.320,553
2023-11-19T04:18:12,42.805,6.029,CST-1368DR,4105,4352,11233,01.318,553
2023-11-19T04:21:14,42.805,6.029,CST-1368DR,4106,4350,11226,01.320,553
2023-11-19T04:24:15,42.805,6.029,CST-1368DR,4105,4349,11228,01.320,553
2023-11-19T04:27:17,42.805,6.029,CST-1368DR,4106,4349,11223,01.321,553
2023-11-19T04:30:19,42.805,6.029,CST-1368DR,4106,4347,11220,01.322,553
2023-11-19T04:33:20,42.805,6.029,CST-1368DR,4106,4348,11222,01.322,553
2023-11-19T04:36:22,42.805,6.029,CST-1368DR,4105,4348,11224,01.321,553
2023-11-19T04:39:23,42.805,6.029,CST-1368DR,4106,4349,11224,01.321,553
2023-11-19T04:42:25,42.805,6.029,CST-1368DR,4106,4347,11220,01.322,553
2023-11-19T04:45:27,42.805,6.029,CST-1368DR,4106,4349,11223,01.321,553
2023-11-19T04:48:28,42.805,6.029,CST-1368DR,4106,4345,11215,01.324,552
2023-11-19T04:51:30,42.805,6.029,CST-1368DR,4106,4347,11219,01.323,553
2023-11-19T04:54:31,42.805,6.029,CST-1368DR,4105,4348,11224,01.321,553
2023-11-19T04:57:33,42.805,6.029,CST-1368DR,4106,4348,11221,01.322,553
2023-11-19T05:00:34,42.805,6.029,CST-1368DR,4106,4348,11222,01.322,553
2023-11-19T05:03:36,42.805,6.029,CST-1368DR,4106,4348,11222,01.322,553
2023-11-19T05:06:38,42.805,6.029,CST-1368DR,4106,4349,11223,01.321,553
2023-11-19T05:09:39,42.805,6.029,CST-1368DR,4105,4348,11224,01.321,553
2023-11-19T05:12:41,42.805,6.029,CST-1368DR,4106,4348,11222,01.322,552
2023-11-19T05:15:42,42.805,6.029,CST-1368DR,4105,4348,11225,01.321,553
2023-11-19T05:18:44,42.805,6.029,CST-1368DR,4105,4350,11228,01.320,553
2023-11-19T05:21:45,42.805,6.029,CST-1368DR,4105,4349,11226,01.320,553
2023-11-19T05:24:47,42.805,6.029,CST-1368DR,4106,4348,11220,01.322,553
2023-11-19T05:27:49,42.805,6.029,CST-1368DR,4106,4348,11222,01.322,553
2023-11-19T05:30:50,42.805,6.029,CST-1368DR,4106,4348,11220,01.322,553
2023-11-19T05:33:52,42.805,6.029,CST-1368DR,4106,4348,11222,01.322,553
2023-11-19T05:36:53,42.805,6.029,CST-1368DR,4105,4348,11223,01.321,553
2023-11-19T05:39:55,42.805,6.029,CST-1368DR,4105,4347,11222,01.322,553
2023-11-19T05:42:56,42.805,6.029,CST-1368DR,4105,4348,11225,01.321,552
2023-11-19T05:45:58,42.805,6.029,CST-1368DR,4105,4348,11225,01.321,553
2023-11-19T05:48:59,42.805,6.029,CST-1368DR,4106,4350,11227,01.320,553
2023-11-19T05:52:01,42.805,6.029,CST-1368DR,4105,4348,11223,01.321,553
2023-11-19T05:55:03,42.805,6.029,CST-1368DR,4105,4348,11224,01.321,553
2023-11-19T05:58:04,42.805,6.029,CST-1368DR,4106,4347,11218,01.323,553
2023-11-19T06:01:06,42.805,6.029,CST-1368DR,4105,4347,11221,01.322,553
2023-11-19T06:04:07,42.805,6.029,CST-1368DR,4105,4350,11229,01.319,553
2023-11-19T06:07:09,42.805,6.029,CST-1368DR,4105,4347,11222,01.322,553
2023-11-19T06:10:10,42.805,6.029,CST-1368DR,4105,4348,11225,01.321,553
2023-11-19T06:13:12,42.805,6.029,CST-1368DR,4106,4352,11232,01.318,553
2023-11-19T06:16:14,42.805,6.029,CST-1368DR,4106,4345,11215,01.324,553
2023-11-19T06:19:15,42.805,6.029,CST-1368DR,4105,4349,11226,01.320,553
2023-11-19T06:22:17,42.805,6.029,CST-1368DR,4105,4349,11226,01.320,553
2023-11-19T06:25:18,42.805,6.029,CST-1368DR,4106,4348,11222,01.322,553
2023-11-19T06:28:20,42.805,6.029,CST-1368DR,4106,4349,11223,01.321,553
2023-11-19T06:31:22,42.805,6.029,CST-1368DR,4105,4349,11226,01.320,553
2023-11-19T06:34:23,42.805,6.029,CST-1368DR,4105,4348,11225,01.321,553
2023-11-19T06:37:25,42.805,6.029,CST-1368DR,4106,4350,11226,01.320,553
2023-11-19T06:40:26,42.805,6.029,CST-1368DR,4106,4348,11222,01.322,553
2023-11-19T06:43:28,42.805,6.029,CST-1368DR,4105,4349,11226,01.320,553
2023-11-19T06:46:29,42.805,6.029,CST-1368DR,4106,4347,11219,01.323,553
2023-11-19T06:49:31,42.805,6.029,CST-1368DR,4106,4348,11222,01.322,553
2023-11-19T06:52:33,42.805,6.029,CST-1368DR,4106,4349,11224,01.321,553
2023-11-19T06:55:34,42.805,6.029,CST-1368DR,4106,4348,11222,01.322,553
2023-11-19T06:58:36,42.805,6.029,CST-1368DR,4106,4348,11220,01.322,553
2023-11-19T07:01:37,42.805,6.029,CST-1368DR,4105,4347,11222,01.322,553
2023-11-19T07:04:39,42.805,6.029,CST-1368DR,4105,4348,11224,01.321,553
2023-11-19T07:07:41,42.805,6.029,CST-1368DR,4105,4347,11222,01.322,553
2023-11-19T07:10:42,42.805,6.029,CST-1368DR,4105,4352,11234,01.317,553
2023-11-19T07:13:44,42.805,6.029,CST-1368DR,4105,4347,11222,01.322,553
2023-11-19T07:16:45,42.805,6.029,CST-1368DR,4105,4348,11225,01.321,553
2023-11-19T07:19:47,42.805,6.029,CST-1368DR,4105,4347,11222,01.322,553
2023-11-19T07:22:48,42.805,6.029,CST-1368DR,4105,4349,11226,01.320,553
2023-11-19T07:25:50,42.805,6.029,CST-1368DR,4106,4349,11225,01.321,553
2023-11-19T07:28:52,42.805,6.029,CST-1368DR,4105,4349,11226,01.320,553
2023-11-19T07:31:53,42.805,6.029,CST-1368DR,4105,4348,11225,01.321,553
2023-11-19T07:34:55,42.805,6.029,CST-1368DR,4106,4347,11218,01.323,553
2023-11-19T07:37:56,42.805,6.029,CST-1368DR,4106,4347,11219,01.323,553
2023-11-19T07:40:58,42.805,6.029,CST-1368DR,4106,4347,11218,01.323,553
2023-11-19T07:44:00,42.805,6.029,CST-1368DR,4105,4345,11217,01.323,553
2023-11-19T07:47:01,42.805,6.029,CST-1368DR,4105,4347,11221,01.322,553
2023-11-19T07:50:03,42.805,6.029,CST-1368DR,4105,4345,11217,01.323,553
2023-11-19T07:53:04,42.805,6.029,CST-1368DR,4105,4354,11240,01.315,553
2023-11-19T07:56:06,42.805,6.029,CST-1368DR,4105,4353,11238,01.316,553
2023-11-19T07:59:07,42.805,6.029,CST-1368DR,4106,4353,11233,01.318,553
2023-11-19T14:35:07,42.805,6.029,CST-1368DR,4111,4378,11285,01.299,553
2023-11-19T14:38:08,42.805,6.029,CST-1368DR,4111,4378,11286,01.299,553
2023-11-19T14:41:10,42.805,6.029,CST-1368DR,4112,4378,11283,01.300,553
2023-11-19T14:44:11,42.805,6.029,CST-1368DR,4112,4378,11284,01.300,553
2023-11-19T14:47:13,42.805,6.029,CST-1368DR,4112,4382,11294,01.296,553
2023-11-19T14:50:15,42.805,6.029,CST-1368DR,4112,4378,11283,01.300,553
2023-11-19T14:53:16,42.805,6.029,CST-1368DR,4112,4378,11282,01.300,553
2023-11-19T14:56:18,42.805,6.029,CST-1368DR,4112,4378,11284,01.300,553
2023-11-19T14:59:19,42.805,6.029,CST-1368DR,4111,4379,11288,01.298,553
2023-11-19T15:02:21,42.805,6.029,CST-1368DR,4111,4379,11288,01.298,553
2023-11-19T15:05:22,42.805,6.029,CST-1368DR,4111,4379,11287,01.299,553
2023-11-19T15:08:24,42.805,6.029,CST-1368DR,4111,4378,11287,01.299,553
2023-11-19T15:11:26,42.805,6.029,CST-1368DR,4111,4379,11287,01.299,553
2023-11-19T15:14:27,42.805,6.029,CST-1368DR,4111,4378,11285,01.299,553
2023-11-19T15:17:29,42.805,6.029,CST-1368DR,4111,4377,11283,01.300,553
2023-11-19T15:20:30,42.805,6.029,CST-1368DR,4111,4378,11285,01.299,553
2023-11-19T15:23:32,42.805,6.029,CST-1368DR,4111,4378,11285,01.299,553
2023-11-19T15:26:34,42.805,6.029,CST-1368DR,4111,4375,11279,01.301,553
2023-11-19T15:29:35,42.805,6.029,CST-1368DR,4111,4377,11284,01.300,553
2023-11-19T15:32:37,42.805,6.029,CST-1368DR,4111,4378,11286,01.299,553
2023-11-19T15:35:38,42.805,6.029,CST-1368DR,4111,4378,11285,01.299,553
2023-11-19T15:38:40,42.805,6.029,CST-1368DR,4111,4378,11285,01.299,553
2023-11-19T15:41:41,42.805,6.029,CST-1368DR,4111,4377,11284,01.300,553
2023-11-19T15:44:43,42.805,6.029,CST-1368DR,4111,4377,11283,01.300,553
2023-11-19T15:47:45,42.805,6.029,CST-1368DR,4111,4376,11281,01.301,553
2023-11-19T15:50:46,42.805,6.029,CST-1368DR,4111,4378,11287,01.299,553
2023-11-19T15:53:48,42.805,6.029,CST-1368DR,4111,4378,11285,01.299,553
2023-11-19T15:56:49,42.805,6.029,CST-1368DR,4111,4377,11283,01.300,553
2023-11-19T15:59:51,42.805,6.029,CST-1368DR,4111,4376,11281,01.301,553
2023-11-19T16:02:52,42.805,6.029,CST-1368DR,4111,4376,11281,01.301,553
2023-11-19T16:05:54,42.805,6.029,CST-1368DR,4110,4376,11284,01.300,553
2023-11-19T16:08:56,42.805,6.029,CST-1368DR,4110,4376,11283,01.300,553
2023-11-19T16:11:57,42.805,6.029,CST-1368DR,4110,4376,11283,01.300,553
2023-11-19T16:14:59,42.805,6.029,CST-1368DR,4110,4376,11283,01.300,553
2023-11-19T16:18:00,42.805,6.029,CST-1368DR,4110,4376,11283,01.300,553
2023-11-19T16:21:02,42.805,6.029,CST-1368DR,4110,4376,11282,01.300,553
2023-11-19T16:24:04,42.805,6.029,CST-1368DR,4110,4376,11282,01.300,553
2023-11-19T16:27:05,42.805,6.029,CST-1368DR,4110,4376,11283,01.300,553
2023-11-19T16:30:07,42.805,6.029,CST-1368DR,4110,4373,11275,01.303,553
2023-11-19T16:33:08,42.805,6.029,CST-1368DR,4110,4375,11281,01.301,553
2023-11-19T16:36:10,42.805,6.029,CST-1368DR,4110,4376,11282,01.300,553
2023-11-19T16:39:11,42.805,6.029,CST-1368DR,4110,4375,11280,01.301,553
2023-11-19T16:42:13,42.805,6.029,CST-1368DR,4110,4375,11281,01.301,553
2023-11-19T16:45:15,42.805,6.029,CST-1368DR,4110,4376,11282,01.300,553
2023-11-19T16:48:16,42.805,6.029,CST-1368DR,4110,4376,11282,01.300,553
2023-11-19T16:51:18,42.805,6.029,CST-1368DR,4110,4375,11281,01.301,553
2023-11-19T16:54:19,42.805,6.029,CST-1368DR,4110,4374,11279,01.301,553
2023-11-19T16:57:21,42.805,6.029,CST-1368DR,4110,4378,11287,01.299,553
2023-11-19T17:00:22,42.805,6.029,CST-1368DR,4110,4374,11279,01.301,553
2023-11-19T17:03:24,42.805,6.029,CST-1368DR,4110,4374,11278,01.302,553
2023-11-19T17:06:26,42.805,6.029,CST-1368DR,4110,4374,11277,01.302,553
2023-11-19T17:09:27,42.805,6.029,CST-1368DR,4110,4376,11283,01.300,553
2023-11-19T17:12:29,42.805,6.029,CST-1368DR,4110,4375,11280,01.301,553
2023-11-19T17:15:30,42.805,6.029,CST-1368DR,4110,4374,11279,01.301,553
2023-11-19T17:18:32,42.805,6.029,CST-1368DR,4110,4375,11280,01.301,553
2023-11-19T17:21:34,42.805,6.029,CST-1368DR,4110,4375,11280,01.301,553
2023-11-19T17:24:35,42.805,6.029,CST-1368DR,4110,4375,11280,01.301,553
2023-11-19T17:27:37,42.805,6.029,CST-1368DR,4110,4375,11280,01.301,553
2023-11-19T17:30:38,42.805,6.029,CST-1368DR,4110,4374,11278,01.302,553
2023-11-19T17:33:40,42.805,6.029,CST-1368DR,4110,4372,11273,01.304,553
2023-11-19T17:36:41,42.805,6.029,CST-1368DR,4110,4374,11277,01.302,553
2023-11-19T17:39:43,42.805,6.029,CST-1368DR,4110,4374,11277,01.302,553
2023-11-19T17:42:45,42.805,6.029,CST-1368DR,4110,4377,11285,01.299,553
2023-11-19T17:45:46,42.805,6.029,CST-1368DR,4110,4375,11281,01.301,553
2023-11-19T17:48:48,42.805,6.029,CST-1368DR,4109,4376,11285,01.299,553
2023-11-19T17:51:49,42.805,6.029,CST-1368DR,4109,4375,11283,01.300,553
2023-11-19T17:54:51,42.805,6.029,CST-1368DR,4109,4376,11285,01.299,553
2023-11-19T17:57:52,42.805,6.029,CST-1368DR,4110,4376,11282,01.300,553
2023-11-19T18:00:54,42.805,6.029,CST-1368DR,4109,4375,11283,01.300,553
2023-11-19T18:03:56,42.805,6.029,CST-1368DR,4109,4375,11282,01.300,553
2023-11-19T18:06:57,42.805,6.029,CST-1368DR,4109,4375,11283,01.300,553
2023-11-19T18:09:59,42.805,6.029,CST-1368DR,4109,4375,11284,01.300,553
2023-11-19T18:13:00,42.805,6.029,CST-1368DR,4109,4375,11283,01.300,553
2023-11-19T18:16:02,42.805,6.029,CST-1368DR,4109,4376,11285,01.299,553
2023-11-19T18:19:04,42.805,6.029,CST-1368DR,4109,4373,11277,01.302,553
2023-11-19T18:22:05,42.805,6.029,CST-1368DR,4109,4375,11283,01.300,553
2023-11-19T18:25:07,42.805,6.029,CST-1368DR,4109,4374,11280,01.301,553
2023-11-19T18:28:08,42.805,6.029,CST-1368DR,4109,4374,11280,01.301,553
2023-11-19T18:31:10,42.805,6.029,CST-1368DR,4109,4374,11280,01.301,553
2023-11-19T18:34:11,42.805,6.029,CST-1368DR,4109,4374,11280,01.301,553
2023-11-19T18:37:13,42.805,6.029,CST-1368DR,4109,4371,11274,01.303,553
2023-11-19T18:40:15,42.805,6.029,CST-1368DR,4109,4372,11274,01.303,553
2023-11-19T18:43:16,42.805,6.029,CST-1368DR,4109,4372,11275,01.303,553
2023-11-19T18:46:18,42.805,6.029,CST-1368DR,4109,4372,11276,01.302,553
2023-11-19T18:49:19,42.805,6.029,CST-1368DR,4109,4373,11278,01.302,553
2023-11-19T18:52:21,42.805,6.029,CST-1368DR,4109,4373,11278,01.302,553
2023-11-19T18:55:22,42.805,6.029,CST-1368DR,4109,4370,11269,01.305,553
2023-11-19T18:58:24,42.805,6.029,CST-1368DR,4109,4373,11278,01.302,553
2023-11-19T19:01:26,42.805,6.029,CST-1368DR,4109,4371,11272,01.304,553
2023-11-19T19:04:27,42.805,6.029,CST-1368DR,4109,4372,11274,01.303,553
2023-11-19T19:07:29,42.805,6.029,CST-1368DR,4109,4373,11278,01.302,553
2023-11-19T19:10:30,42.805,6.029,CST-1368DR,4109,4373,11278,01.302,553
2023-11-19T19:13:32,42.805,6.029,CST-1368DR,4109,4372,11276,01.302,553
2023-11-19T19:16:34,42.805,6.029,CST-1368DR,4109,4374,11280,01.301,553
2023-11-19T19:19:35,42.805,6.029,CST-1368DR,4109,4374,11280,01.301,553
2023-11-19T19:22:37,42.805,6.029,CST-1368DR,4109,4374,11282,01.300,553
2023-11-19T19:25:38,42.805,6.029,CST-1368DR,4109,4374,11280,01.301,553
2023-11-19T19:28:40,42.805,6.029,CST-1368DR,4109,4373,11278,01.302,553
2023-11-19T19:31:42,42.805,6.029,CST-1368DR,4109,4373,11278,01.302,553
2023-11-19T19:34:43,42.805,6.029,CST-1368DR,4109,4373,11278,01.302,553
2023-11-19T19:37:45,42.805,6.029,CST-1368DR,4109,4373,11278,01.302,553
2023-11-19T19:40:46,42.805,6.029,CST-1368DR,4109,4374,11280,01.301,553
2023-11-19T19:43:48,42.805,6.029,CST-1368DR,4109,4373,11277,01.302,553
2023-11-19T19:46:50,42.805,6.029,CST-1368DR,4109,4372,11276,01.302,553
2023-11-19T19:49:51,42.805,6.029,CST-1368DR,4109,4374,11280,01.301,553
2023-11-19T19:52:53,42.805,6.029,CST-1368DR,4109,4373,11278,01.302,553
2023-11-19T19:55:54,42.805,6.029,CST-1368DR,4109,4373,11278,01.302,553
2023-11-19T19:58:56,42.805,6.029,CST-1368DR,4109,4373,11278,01.302,553
2023-11-19T20:01:58,42.805,6.029,CST-1368DR,4109,4367,11263,01.307,553
2023-11-19T20:04:59,42.805,6.029,CST-1368DR,4109,4372,11274,01.303,553
2023-11-19T20:08:01,42.805,6.029,CST-1368DR,4109,4372,11276,01.302,553
2023-11-19T20:11:02,42.805,6.029,CST-1368DR,4108,4373,11280,01.301,553
2023-11-19T20:14:04,42.805,6.029,CST-1368DR,4109,4372,11274,01.303,553
2023-11-19T20:17:05,42.805,6.029,CST-1368DR,4109,4373,11277,01.302,552
2023-11-19T20:20:07,42.805,6.029,CST-1368DR,4108,4372,11278,01.302,553
2023-11-19T20:23:09,42.805,6.029,CST-1368DR,4108,4372,11278,01.302,553
2023-11-19T20:26:10,42.805,6.029,CST-1368DR,4108,4372,11278,01.302,553
2023-11-19T20:29:12,42.805,6.029,CST-1368DR,4108,4372,11277,01.302,553
2023-11-19T20:32:13,42.805,6.029,CST-1368DR,4108,4372,11278,01.302,553
2023-11-19T20:35:15,42.805,6.029,CST-1368DR,4108,4372,11278,01.302,553
2023-11-19T20:38:16,42.805,6.029,CST-1368DR,4108,4372,11277,01.302,553
2023-11-19T20:41:18,42.805,6.029,CST-1368DR,4108,4370,11272,01.304,553
2023-11-19T20:50:07,42.805,6.029,CST-1368DR,4108,4371,11276,01.302,553
2023-11-19T20:53:08,42.805,6.029,CST-1368DR,4108,4372,11278,01.302,553
2023-11-19T20:56:10,42.805,6.029,CST-1368DR,4108,4371,11276,01.302,553
2023-11-19T20:59:12,42.805,6.029,CST-1368DR,4108,4371,11275,01.303,553
2023-11-19T21:02:13,42.805,6.029,CST-1368DR,4108,4372,11278,01.302,553
2023-11-19T21:05:15,42.805,6.029,CST-1368DR,4108,4369,11271,01.304,553
2023-11-19T21:08:16,42.805,6.029,CST-1368DR,4108,4369,11271,01.304,553
2023-11-19T21:11:18,42.805,6.029,CST-1368DR,4108,4302,11098,01.366,553
2023-11-19T21:14:19,42.805,6.029,CST-1368DR,4108,4367,11266,01.306,553
2023-11-19T21:17:21,42.805,6.029,CST-1368DR,4108,4367,11265,01.306,553
2023-11-19T21:20:23,42.805,6.029,CST-1368DR,4108,4366,11262,01.307,553
2023-11-19T21:23:24,42.805,6.029,CST-1368DR,4108,4371,11274,01.303,552
2023-11-19T21:26:26,42.805,6.029,CST-1368DR,4108,4370,11274,01.303,553
2023-11-19T21:29:27,42.805,6.029,CST-1368DR,4108,4369,11271,01.304,553
2023-11-19T21:32:29,42.805,6.029,CST-1368DR,4108,4374,11282,01.300,553
2023-11-19T21:35:30,42.805,6.029,CST-1368DR,4108,4371,11276,01.302,553
2023-11-19T21:38:32,42.805,6.029,CST-1368DR,4108,4372,11277,01.302,553
2023-11-19T21:41:34,42.805,6.029,CST-1368DR,4108,4367,11265,01.306,553
2023-11-19T21:44:35,42.805,6.029,CST-1368DR,4108,4366,11262,01.307,553
2023-11-19T21:47:37,42.805,6.029,CST-1368DR,4108,4369,11269,01.305,553
2023-11-19T21:50:38,42.805,6.029,CST-1368DR,4108,4368,11267,01.306,553
2023-11-19T21:53:40,42.805,6.029,CST-1368DR,4108,4369,11271,01.304,553
2023-11-19T21:56:42,42.805,6.029,CST-1368DR,4108,4369,11270,01.305,553
2023-11-19T21:59:43,42.805,6.029,CST-1368DR,4108,4366,11263,01.307,553
2023-11-19T22:02:45,42.805,6.029,CST-1368DR,4108,4369,11270,01.305,553
2023-11-19T22:05:46,42.805,6.029,CST-1368DR,4108,4370,11272,01.304,553
2023-11-19T22:08:48,42.805,6.029,CST-1368DR,4108,4369,11271,01.304,553
2023-11-19T22:11:49,42.805,6.029,CST-1368DR,4108,4369,11271,01.304,553
2023-11-19T22:14:51,42.805,6.029,CST-1368DR,4108,4370,11274,01.303,553
2023-11-19T22:17:53,42.805,6.029,CST-1368DR,4108,4367,11265,01.306,553
2023-11-19T22:20:54,42.805,6.029,CST-1368DR,4108,4371,11275,01.303,553
2023-11-19T22:23:56,42.805,6.029,CST-1368DR,4108,4369,11270,01.305,553
2023-11-19T22:26:57,42.805,6.029,CST-1368DR,4108,4369,11271,01.304,553
2023-11-19T22:29:59,42.805,6.029,CST-1368DR,4108,4369,11270,01.305,553
2023-11-19T22:33:00,42.805,6.029,CST-1368DR,4108,4369,11270,01.305,553
2023-11-19T22:36:02,42.805,6.029,CST-1368DR,4108,4367,11265,01.306,553
2023-11-19T22:39:04,42.805,6.029,CST-1368DR,4108,4368,11267,01.306,553
2023-11-19T22:42:05,42.805,6.029,CST-1368DR,4108,4365,11259,01.309,553
2023-11-19T22:45:07,42.805,6.029,CST-1368DR,4108,4366,11262,01.307,553
2023-11-19T22:48:08,42.805,6.029,CST-1368DR,4108,4368,11269,01.305,553
2023-11-19T22:51:10,42.805,6.029,CST-1368DR,4108,4370,11274,01.303,553
2023-11-19T22:54:12,42.805,6.029,CST-1368DR,4108,4369,11270,01.305,553
2023-11-19T22:57:13,42.805,6.029,CST-1368DR,4108,4369,11270,01.305,553
2023-11-19T23:00:15,42.805,6.029,CST-1368DR,4108,4369,11269,01.305,552
2023-11-19T23:03:16,42.805,6.029,CST-1368DR,4108,4365,11259,01.309,553
2023-11-19T23:06:18,42.805,6.029,CST-1368DR,4108,4365,11260,01.308,553
2023-11-19T23:09:19,42.805,6.029,CST-1368DR,4108,4368,11269,01.305,553
2023-11-19T23:12:21,42.805,6.029,CST-1368DR,4108,4368,11267,01.306,553
2023-11-19T23:15:23,42.805,6.029,CST-1368DR,4108,4369,11271,01.304,553